Regional Weather Roundup
Issued by NWS

Home | Current Version | Previous Version | Text Only | Print | Product List | Glossary Off
Versions: 1 2 3 4 5 6 7 8 9 10 11 12 13 14 15 16 17 18 19 20 21 22 23 24 25 26 27 28

000
ASUS45 KCYS 250410
RWRWY

WYOMING REGIONAL WEATHER ROUNDUP
NATIONAL WEATHER SERVICE CHEYENNE WY
1000 PM MDT SAT JUN 24 2017

NOTE:  "FAIR" INDICATES FEW OR NO CLOUDS BELOW 12,000 FEET
WITH NO SIGNIFICANT WEATHER AND/OR OBSTRUCTIONS TO VISIBILITY.

WYZ001-250500-
YELLOWSTONE NATIONAL PARK

CITY           SKY/WX    TMP DP  RH WIND       PRES   REMARKS
LK YELLOWSTONE   N/A     53  30  41 VRB5      30.46R
W YELLOWSTONE  NOT AVBL

$$
WYZ002>013-054>058-071-098>099-250500-
NORTHERN WYOMING

CITY           SKY/WX    TMP DP  RH WIND       PRES   REMARKS
JACKSON        FAIR      54  36  50 CALM      30.34R
CODY           FAIR      61  36  39 CALM      30.38R
GREYBULL       CLOUDY    71  29  21 NW13      30.28R
WORLAND        FAIR      62  40  44 NE3       30.28R
SHERIDAN       MOCLDY    58  45  62 CALM      30.34R
BUFFALO        CLOUDY    60  38  43 N3        30.39R
GILLETTE       MOCLDY    60  33  36 NE5       30.36R
NEWCASTLE      FAIR      61  28  29 NE8       30.35R

$$
WYZ014>020-022>026-101>103-250500-
CENTRAL WYOMING

CITY           SKY/WX    TMP DP  RH WIND       PRES   REMARKS
BIG PINEY      FAIR      59  35  40 N10       30.36R
PINEDALE       FAIR      54  41  62 W7        30.37R
DUBOIS         FAIR      54  32  43 SE7       30.40R
LANDER         FAIR      62  37  39 W8        30.32R
RIVERTON       MOCLDY    65  33  30 NE12      30.33R
CASPER         CLOUDY    61  33  35 NE15      30.36R
DOUGLAS        FAIR      60  34  37 NE8       30.37R

$$
WYZ021-027>030-104>119-250500-
SOUTHERN WYOMING

CITY           SKY/WX    TMP DP  RH WIND       PRES   REMARKS
EVANSTON       FAIR      64  31  28 NW5       30.36R
KEMMERER         N/A     59  36  41 NW8       30.38R
FORT BRIDGER   FAIR      64  31  29 N7        30.37R
ROCK SPRINGS   FAIR      65  25  22 E6        30.32R
DIXON          FAIR      60  29  30 E9        30.36R
RAWLINS        MOCLDY    60  26  27 NE9       30.37R
SARATOGA       FAIR      54  27  35 SE6       30.38R
LARAMIE        FAIR      54  34  46 SE12      30.42R
CHEYENNE       FAIR      57  37  47 E6        30.40R
TORRINGTON     FAIR      62  36  37 E9        30.31R
PINE BLUFFS    FAIR      57  41  54 NE3       30.37R

$$




USA.gov is the U.S. government's official web portal to all federal, state and local government web resources and services.